Other Public Products
Issued by NWS Grand Forks, ND

Home | Current Version | Previous Version | Text Only | Print | Product List | Glossary On
Versions: 1 2 3 4 5 6 7 8 9 10 11 12 13 14 15 16 17 18 19 20 21 22 23 24 25 26 27 28 29 30 31 32 33 34 35 36 37 38 39 40 41 42 43 44 45 46 47 48 49 50
000
FPUS83 KFGF 040131
OPUFGF
PRAIRIE TO PINES WEATHER ROUNDUP
NATIONAL WEATHER SERVICE EASTERN NORTH DAKOTA/GRAND FORKS ND
800 PM CDT SUN MAY 03 2015

 **SATELLITE DATA USED TO AUGMENT SKY COVER AT AUTOMATED STATIONS**
 *****  WEATHER ACROSS EASTERN NORTH DAKOTA  *****

CITY           SKY/WX    TMP DP  RH WIND       PRES   REMARKS
GRAND FORKS    PTCLDY    63  28  26 NW8       29.94R
GRAND FORKS AF PTCLDY    64  24  22 N14       29.94R
GRAND CITY NWS   N/A     59 N/A N/A NW6         N/A
BUXTON           N/A     63  22  20 CALM        N/A
DEVILS LAKE    CLEAR     57  27  30 NW10      29.98R
FARGO          MOCLDY    65  23  20 NW12      29.93R
WAHPETON ARPT  MOCLDY    63  16  16 N13       29.94S
$$

 *****  WEATHER ACROSS CENTRAL AND WESTERN NORTH DAKOTA  *****

CITY           SKY/WX    TMP DP  RH WIND       PRES   REMARKS
JAMESTOWN      PTCLDY    62  22  21 NW16      29.98R
BISMARCK       CLEAR     62  21  20 NW13      30.02S
MINOT          CLEAR     59  23  25 NW13      30.01R
MINOT AFB      CLEAR     62  25  23 N10       30.00S
GARRISON         N/A     62  23  22 NW16      30.01R
WILLISTON      SUNNY     61  19  19 N12       30.04R
DICKINSON      MOCLDY    57  26  30 N7        30.03R
HETTINGER      CLEAR     60  26  27 N8        30.04R
$$

 *****  OTHER OBSERVATIONS NORTHEAST NORTH DAKOTA  *****

CITY           SKY/WX    TMP DP  RH WIND       PRES   REMARKS
WALHALLA       FAIR      61  27  27 NW12      29.95S
LANGDON        FAIR      59  27  29 NW13G20   29.98R
CAVALIER       FAIR      61  27  27 NW9G17    29.95R
GRAFTON        FAIR      63  28  27 NW14      29.95R
CANDO          FAIR      57  27  30 NW9       29.99R
FORT TOTTEN      N/A     60  27  28 NW7       29.95S
ROLLA          NOT AVBL
RUGBY          NOT AVBL
 ***** THE ABOVE OBSERVATIONS ARE NON NWS ARE NOT QUALITY
        CONTROLLED AND MAY MIS-REPORT RAIN FOR SNOW...
$$

 *****  OTHER OBSERVATIONS SOUTHEAST NORTH DAKOTA *****

CITY           SKY/WX    TMP DP  RH WIND       PRES   REMARKS
COOPERSTOWN    NOT AVBL
VALLEY CITY    FAIR      61  25  25 NW9       29.97S
OAKES            N/A     61  27  27 N14       29.97S
GWINNER        CLEAR     66  23  19 N14       29.97R
SHEYENNE NWR     N/A     66  21  18 N9        29.95S
BUFFALO        NOT AVBL
WYNDMERE       NOT AVBL
 ***** THE ABOVE OBSERVATIONS ARE NON NWS ARE NOT QUALITY
       CONTROLLED AND MAY MIS-REPORT RAIN FOR SNOW...
$$

  *****  WEATHER ACROSS NORTHERN MINNESOTA  *****

CITY           SKY/WX    TMP DP  RH WIND       PRES   REMARKS
FLAG ISLAND    CLEAR     55  39  54 NW16      29.93R
WARROAD        CLEAR     55  39  54 NW9       29.95R
ROSEAU         CLEAR     57  36  44 NW13      29.95R
HALLOCK        PTCLDY    61  28  29 N10       29.94R
THF RVR FALLS  PTCLDY    59  27  29 NW10      29.94R
HALSTAD          N/A     62  18  17 N12         N/A
FOSSTON        NOT AVBL
BAUDETTE       CLEAR     57  34  41 NW16G24   29.92R
WASKISH        PTCLDY    61  36  39 CALM      29.92R
CROOKSTON      PTCLDY    63  25  23 N12       29.95R
$$
  *****  WEATHER ACROSS CENTRAL AND WEST MINNESOTA  *****

CITY           SKY/WX    TMP DP  RH WIND       PRES   REMARKS
BEMIDJI        PTCLDY    58  26  28 NW8       29.91R
PARK RAPIDS    CLEAR     63  21  20 NW13      29.90S
WADENA         CLEAR     59  30  33 NW3       29.90F
DETROIT LAKES  PTCLDY    63  25  23 N12       29.94R
MOORHEAD       MOCLDY    63  21  20 NW10      29.94S
FERGUS FALLS   MOCLDY    61  30  31 NW8       29.93S
ELBOW LAKE     FAIR      60  33  35 N6        29.92S
MORRIS MN      PTCLDY    63  28  27 N10       29.91S
STAPLES        CLEAR     57  28  33 NW6       29.90S
WHEATON        PTCLDY    61  30  31 NW5       29.94S
$$
  *****  WEATHER ELSEWHERE ACROSS MINNESOTA  *****

CITY           SKY/WX    TMP DP  RH WIND       PRES   REMARKS
DULUTH         PTCLDY    64  36  35 NW9       29.85R
INTRNTL FALLS  CLEAR     59  30  33 NW16      29.88R
ELY            PTCLDY    59  27  29 NW5       29.86R
CLOQUET        PTCLDY    61  32  33 NW7       29.87R
BRAINERD       CLEAR     64  32  30 N13       29.88R
HIBBING        PTCLDY    61  31  32 NW12G17   29.87R
ALEXANDRIA     CLEAR     62  27  26 N12       29.92F
SAINT CLOUD    CLEAR     66  41  40 N9        29.84S
MINNEAPOLIS    CLOUDY    64  48  56 N8        29.84R
$$

  *****  WEATHER ACROSS SOUTH DAKOTA  *****

CITY           SKY/WX    TMP DP  RH WIND       PRES   REMARKS
SIOUX FALLS    PTCLDY    66  38  35 N10       29.85S
BROOKINGS      PTCLDY    63  34  34 N17       29.92R
WATERTOWN      CLEAR     62  31  31 N14       29.94R
HURON          CLEAR     66  31  27 NE12      29.93R
SISSETON         N/A     65  25  22 N10       29.92F
ABERDEEN       PTCLDY    66  26  22 N10       29.96S
MITCHELL       PTCLDY    69  37  30 N23       29.91R
PIERRE         CLEAR     67  27  22 N13       29.97R
MOBRIDGE       MOCLDY    65  26  23 N12       29.98R
RAPID CITY     MOCLDY    63  34  33 NE13      30.03R
$$

  *****  SOME WEATHER IN NEARBY STATES *****

CITY           SKY/WX    TMP DP  RH WIND       PRES   REMARKS
GLASGOW MT     SUNNY     60  24  25 NW6       30.03S
GREAT FALLS MT SUNNY     63  20  19 NE10      29.93S
CHEYENNE WY    CLOUDY    52  44  74 E3        30.06S
SCOTTSBLUFF NE CLOUDY    66  38  35 E10G20    29.99R
OMAHA NE       LGT RAIN  75  61  61 SE21      29.72F
DES MOINES IA  MOCLDY    77  58  51 S9        29.75F
DAVENPORT IA   CLOUDY    78  53  41 S12       29.83F
CHICAGO IL     TSTM      62  59  90 S7        29.93F
EAU CLAIRE WI  LGT RAIN  60  56  86 N9        29.87R
LA CROSSE WI   CLOUDY    79  56  45 S9        29.76R
$$

  *****  SOME NATIONAL WEATHER *****

CITY           SKY/WX    TMP DP  RH WIND       PRES   REMARKS
LA GUARDIA NY  MOCLDY    64  42  44 S7        30.10R
RALEIGH NC     PTCLDY    64  51  62 CALM      30.17R
ATLANTA GA     MOCLDY    72  47  40 S5        30.15R
NEW ORLEANS LA PTCLDY    74  51  44 SE6       30.08S
OKLAHOMA CITY  PTCLDY    73  51  46 S12       29.89F
ALBUQUERQUE NM MOCLDY    72  34  24 N8        29.96F
SALT LAKE CITY MOSUNNY   77  31  18 NW9       29.81F
LOS ANGELES CA MOSUNNY   61  51  70 W21       29.87F
BOISE ID       SUNNY     78  27  15 N15       29.78F
SEATTLE WA     SUNNY     68  32  26 N6        29.91F
$$

*** WEATHER ACROSS MANITOBA...SASKATCHEWAN AND ONTARIO ***
                ***ONTARIO***

CITY           SKY/WX    TMP DP  RH WIND       PRES   REMARKS
GERALDTON      MOCLDY    59  34  38 W6        29.77R
THUNDER BAY    MOCLDY    66  27  22 W15G21    29.78R
SIOUX LOOKOUT  PTCLDY    50  39  66 NW12      29.87R
TORONTO        PTCLDY    72  39  30 SW12      30.02R
BIG TROUT LK   MIX PCPN  32  32 100 N7        29.88R
PICKLE LAKE    MOCLDY    45  41  87 W5        29.82R
DRYDEN         MOCLDY    52  39  62 NW9       29.88R
KENORA         PTCLDY    52  36  54 NW13G20   29.93R
$$
                *** MANITOBA***

CITY           SKY/WX    TMP DP  RH WIND       PRES   REMARKS
BRANDON        PTCLDY    57  28  33 NW16G22   30.00R
DAUPHIN        CLEAR     55  28  35 NW10      29.99R
ISLAND LAKE    CLOUDY    41  32  70 N3        29.91R
PILOT MOUND      N/A     57  27  30 NW15        N/A
THE PAS        MOSUNNY   48  34  57 W10       29.97R
THOMPSON       MOCLDY    37  25  60 N5        29.93S
WINNIPEG       PTCLDY    54  39  58 NE17      29.97R
LYNN LAKE      LGT SNOW  34  32  93 W6        29.90R
CHURCHILL      MOCLDY    28  23  80 NW8       29.91S WCI  20
GILLAM         MOCLDY    30  23  74 N10       29.94S WCI  21
$$
                ***SASKATCHEWAN***

CITY           SKY/WX    TMP DP  RH WIND       PRES   REMARKS
ESTEVAN        MOSUNNY   57  25  28 W9        30.04R
KINDERSLEY     MOSUNNY   48  34  57 NE17      30.05S
LLOYDMINSTER   MOSUNNY   48  30  49 W6        30.03S
PRINCE ALBERT  MOSUNNY   54  25  32 NW10      30.01R
REGINA         MOSUNNY   50  32  50 N14       30.05R


USA.gov is the U.S. government's official web portal to all federal, state and local government web resources and services.